WP4T Weather Reports


time (UTC)temp
F
wind
direction
speed
knots
gust
knots
rain 1hr
in
rain 24hr
in
rain mn
in
humidity
%
barometer
mb
20260505021514 78 80 0.0 0.0 0.00 0.00 0.00 88 1016.7
20260505020015 78 80 0.0 0.9 0.00 0.00 0.00 88 1016.6
20260505014514 78 80 0.0 1.7 0.00 0.00 0.00 88 1016.3
20260505013016 78 80 0.0 0.0 0.00 0.00 0.00 88 1016.2
20260505011517 79 80 0.0 0.0 0.00 0.00 0.00 87 1016.0
20260505010011 79 80 0.0 1.7 0.00 0.00 0.00 87 1015.9
20260505004518 79 80 0.0 1.7 0.00 0.00 0.00 86 1015.7
20260505003021 79 80 0.0 1.7 0.00 0.00 0.00 86 1015.7
20260505001518 80 80 0.0 1.7 0.00 0.00 0.00 85 1015.6
20260505000018 80 92 0.0 1.7 0.00 0.00 0.00 85 1015.6
20260504234515 80 111 0.0 1.7 0.00 0.00 0.00 85 1015.2
20260504233020 81 112 0.0 2.6 0.00 0.00 0.00 85 1015.2
20260504231517 81 112 0.9 3.5 0.00 0.00 0.00 84 1015.2
20260504230021 82 123 0.9 6.1 0.00 0.00 0.00 83 1015.2
20260504224521 82 129 0.9 5.2 0.00 0.00 0.00 83 1015.1
20260504223018 82 126 3.5 7.0 0.00 0.00 0.00 82 1014.7
20260504221528 83 127 0.9 6.1 0.00 0.00 0.00 82 1014.5
20260504220026 83 103 3.5 7.8 0.00 0.00 0.00 80 1014.5
20260504214531 84 137 2.6 8.7 0.00 0.00 0.00 80 1014.2
20260504213026 85 90 3.5 8.7 0.00 0.00 0.00 76 1014.1
20260504211527 85 135 4.3 9.6 0.00 0.00 0.00 77 1014.1
20260504210032 85 98 2.6 10.4 0.00 0.00 0.00 78 1014.1
20260504204533 85 140 5.2 11.3 0.00 0.00 0.00 78 1014.0
20260504203039 86 95 3.5 13.9 0.00 0.00 0.00 77 1014.2
20260504201525 86 153 4.3 11.3 0.00 0.00 0.00 77 1014.2
20260504200026 86 130 6.1 13.9 0.00 0.00 0.00 74 1014.3
20260504194533 87 119 3.5 13.0 0.00 0.00 0.00 75 1014.4
20260504193026 87 136 8.7 15.6 0.00 0.00 0.00 73 1014.5
20260504191521 86 120 6.1 14.8 0.00 0.00 0.00 76 1014.5
20260504190017 87 109 6.1 15.6 0.00 0.00 0.00 76 1014.6
20260504184519 86 62 5.2 18.2 0.00 0.00 0.00 76 1014.9
20260504183030 88 100 4.3 15.6 0.00 0.00 0.00 73 1014.9
20260504181508 87 159 8.7 17.4 0.00 0.00 0.00 72 1015.0
20260504180013 87 129 7.8 16.5 0.00 0.00 0.00 71 1015.0
20260504174519 88 171 10.4 17.4 0.00 0.00 0.00 66 1015.1
20260504173024 89 129 8.7 20.0 0.00 0.00 0.00 65 1015.3
20260504171524 89 73 4.3 13.0 0.00 0.00 0.00 62 1015.5
20260504081524 71 95 0.0 2.6 0.00 0.00 0.00 91 1014.9
20260504044514 74 104 0.0 0.9 0.00 0.00 0.00 90 1015.9
20260504043016 73 101 0.9 5.2 0.00 0.00 0.00 90 1016.0
20260504041520 73 102 0.0 1.7 0.00 0.00 0.00 90 1016.2
20260504040024 74 102 0.0 0.0 0.00 0.00 0.00 89 1016.4
20260504034528 75 102 0.0 0.0 0.00 0.00 0.00 89 1016.7
20260504033010 75 102 0.0 0.9 0.00 0.00 0.00 89 1016.9
20260504031516 76 102 0.0 1.7 0.00 0.00 0.00 88 1016.9
20260504030020 76 102 0.0 1.7 0.00 0.00 0.00 89 1017.1
20260504024525 76 107 0.0 1.7 0.00 0.00 0.00 88 1017.0
20260504023028 76 107 0.0 1.7 0.00 0.00 0.00 88 1016.7